TimePST,TemperatureF,Dew PointF,Humidity,Sea Level PressureIn,VisibilityMPH,Wind Direction,Wind SpeedMPH,Gust SpeedMPH,PrecipitationIn,Events,Conditions,WindDirDegrees,DateUTC
12:29 AM,44.6,42.8,93,30.36,9.0,SSW,4.6,-,N/A,,Overcast,200,2013-02-12 08:29:00
12:53 AM,45.0,42.1,90,30.36,7.0,SW,4.6,-,N/A,,Overcast,220,2013-02-12 08:53:00
1:45 AM,44.6,42.8,93,30.35,9.0,South,6.9,-,0.01,,Overcast,180,2013-02-12 09:45:00
1:53 AM,44.1,42.1,93,30.36,8.0,South,9.2,-,0.01,,Overcast,180,2013-02-12 09:53:00
2:17 AM,44.6,42.8,93,30.35,5.0,South,8.1,-,N/A,,Overcast,180,2013-02-12 10:17:00
2:31 AM,44.6,42.8,93,30.35,4.0,South,8.1,-,N/A,,Overcast,180,2013-02-12 10:31:00
2:42 AM,44.6,42.8,93,30.36,4.0,South,9.2,-,N/A,,Overcast,180,2013-02-12 10:42:00
2:53 AM,44.1,42.1,93,30.36,9.0,South,6.9,-,N/A,,Overcast,180,2013-02-12 10:53:00
3:15 AM,44.6,42.8,93,30.35,10.0,South,6.9,-,N/A,,Overcast,190,2013-02-12 11:15:00
3:23 AM,44.6,42.8,93,30.35,10.0,South,6.9,-,N/A,,Overcast,190,2013-02-12 11:23:00
3:53 AM,45.0,42.1,90,30.36,10.0,South,6.9,-,N/A,,Overcast,190,2013-02-12 11:53:00
4:53 AM,44.1,42.1,93,30.37,10.0,South,6.9,-,N/A,,Overcast,180,2013-02-12 12:53:00
5:07 AM,44.6,42.8,93,30.36,6.0,South,6.9,-,N/A,,Overcast,180,2013-02-12 13:07:00
5:53 AM,45.0,42.1,90,30.36,10.0,South,6.9,-,N/A,,Overcast,190,2013-02-12 13:53:00
6:42 AM,44.6,42.8,93,30.37,10.0,South,6.9,-,N/A,,Overcast,190,2013-02-12 14:42:00
6:53 AM,45.0,42.1,90,30.37,10.0,South,9.2,-,N/A,,Overcast,190,2013-02-12 14:53:00
7:53 AM,45.0,42.1,90,30.39,10.0,South,9.2,-,N/A,,Overcast,190,2013-02-12 15:53:00
8:53 AM,45.0,42.1,90,30.40,10.0,South,6.9,-,N/A,,Overcast,190,2013-02-12 16:53:00
9:53 AM,46.0,42.1,86,30.39,10.0,South,11.5,-,N/A,,Overcast,190,2013-02-12 17:53:00
10:53 AM,46.9,43.0,86,30.40,10.0,South,12.7,19.6,N/A,,Overcast,190,2013-02-12 18:53:00
11:53 AM,46.9,43.0,86,30.40,10.0,South,10.4,-,N/A,,Overcast,190,2013-02-12 19:53:00
11:54 AM,46.4,42.8,87,30.39,10.0,South,10.4,-,N/A,,Overcast,190,2013-02-12 19:54:00
12:53 PM,48.0,44.1,86,30.39,10.0,SSW,11.5,-,N/A,,Overcast,200,2013-02-12 20:53:00
1:53 PM,48.9,44.1,83,30.38,10.0,SSW,11.5,19.6,N/A,,Mostly Cloudy,200,2013-02-12 21:53:00
2:53 PM,50.0,44.1,80,30.35,10.0,SSW,11.5,19.6,N/A,,Mostly Cloudy,200,2013-02-12 22:53:00
3:00 PM,50.0,42.8,76,30.34,10.0,South,12.7,19.6,N/A,,Mostly Cloudy,190,2013-02-12 23:00:00
3:53 PM,50.0,42.1,74,30.37,10.0,SSW,12.7,-,N/A,,Mostly Cloudy,210,2013-02-12 23:53:00
4:53 PM,48.9,42.1,77,30.36,10.0,SSW,11.5,20.7,N/A,,Overcast,200,2013-02-13 00:53:00
5:53 PM,48.9,43.0,80,30.36,10.0,SSW,11.5,-,N/A,,Overcast,210,2013-02-13 01:53:00
6:53 PM,48.0,43.0,83,30.35,10.0,SSW,13.8,24.2,N/A,,Overcast,210,2013-02-13 02:53:00
7:00 PM,48.2,42.8,82,30.34,10.0,SW,13.8,24.2,N/A,,Overcast,220,2013-02-13 03:00:00
7:53 PM,48.0,43.0,83,30.32,10.0,SSW,13.8,21.9,N/A,,Mostly Cloudy,210,2013-02-13 03:53:00
8:43 PM,46.4,42.8,87,30.33,10.0,SSW,11.5,20.7,N/A,,Mostly Cloudy,210,2013-02-13 04:43:00
8:53 PM,48.0,43.0,83,30.34,10.0,SSW,10.4,20.7,N/A,,Overcast,210,2013-02-13 04:53:00
9:10 PM,46.4,42.8,87,30.32,10.0,SSW,9.2,19.6,N/A,,Overcast,210,2013-02-13 05:10:00
9:53 PM,46.9,43.0,86,30.34,10.0,SSW,8.1,18.4,N/A,,Mostly Cloudy,210,2013-02-13 05:53:00
10:18 PM,46.4,42.8,87,30.32,10.0,SW,11.5,21.9,N/A,,Scattered Clouds,220,2013-02-13 06:18:00
10:53 PM,46.9,43.0,86,30.33,10.0,SSW,12.7,21.9,N/A,,Scattered Clouds,200,2013-02-13 06:53:00
11:53 PM,46.9,42.1,83,30.33,10.0,SSW,17.3,25.3,N/A,,Partly Cloudy,200,2013-02-13 07:53:00